Weather Roundup
Issued by NWS Chicago, IL

Home | Current Version | Previous Version | Graphics & Text | Print | Product List | Glossary On
Versions: 1 2 3 4 5 6 7 8 9 10 11 12 13 14 15 16 17 18 19 20 21 22 23 24 25 26 27 28 29 30 31 32 33 34 35 36 37 38 39 40 41 42 43 44 45 46 47 48 49 50
000
NZUS59 KLOT 301110
HRRLOT

CHICAGO AREA WEATHER ROUNDUP
NATIONAL WEATHER SERVICE CHICAGO/ROMEOVILLE IL
500 AM CST FRI JAN 30 2015

NOTE: "FAIR" INDICATES FEW OR NO CLOUDS BELOW 12,000 FEET WITH NO
SIGNIFICANT WEATHER AND/OR OBSTRUCTIONS TO VISIBILITY.

* THESE STATIONS ARE NOT UNDER NWS QUALITY CONTROL. THEY ALSO MAY NOT
  REPORT WEATHER SUCH AS PRECIPITATION OR FOG.

ILZ005-006-012>014-019>023-301200-
NORTHEAST ILLINOIS

CITY           SKY/WX    TMP DP  RH WIND       PRES   REMARKS
OHARE            N/A     22   8  55 N10G20    30.43R WCI  11
MIDWAY         PTCLDY    25   9  50 N12       30.44R WCI  14
AURORA         MOCLDY    21  12  68 N7        30.44R WCI  12
LANSING*       CLEAR     25   9  51 NW8       30.43R WCI  16
JOLIET*        CLEAR     22  12  64 N3        30.45R
WAUKEGAN         N/A     20   9  62 NW7       30.43R WCI  11
DUPAGE AIRPORT CLOUDY    23  12  62 N6        30.43R WCI  16
WHEELING       CLEAR     21   8  57 N7        30.45R WCI  12
KANKAKEE*      CLEAR     26  15  64 N9        30.43R WCI  17
MORRIS*        CLEAR     19  16  90 CALM      30.45R
LEWIS AIRPORT* CLEAR     22  10  59 N7        30.44R WCI  14
NORTHERLY IS     N/A     25   9  50 NW13        N/A  WCI  14
$$

WIZ051-052-058>065-066-070>072-301200-
SOUTHEAST WISCONSIN

CITY           SKY/WX    TMP DP  RH WIND       PRES   REMARKS
MILWAUKEE      PTCLDY    20   9  62 NW12      30.44R WCI   8
KENOSHA*       CLEAR     20   9  62 NW6       30.43R WCI  12
RACINE*        CLEAR     20   9  62 N9        30.45R WCI   9
BURLINGTON     PTCLDY    18   6  61 N12       30.45R WCI   5
WEST BEND      CLEAR     14   7  73 NW5       30.44R WCI   6
$$

INZ001>003-010>013-019-020-301200-
NORTHWEST INDIANA

CITY           SKY/WX    TMP DP  RH WIND       PRES   REMARKS
GARY*          NOT AVBL
MICHIGAN CITY* NOT AVBL
RENSSELAER*    NOT AVBL
VALPARAISO     CLOUDY    25  17  72 N9        30.39R WCI  15
$$

LMZ740>746-301200-
SOUTHERN LAKE MICHIGAN

STATION/POSITION TIME  SKY/WX   TEMP WIND        PRES    VSBY
                                AIR  DIR/SP/G
                 (UTC)          (F)  (DEG/KT/KT) (MB)    (MI)
HARRISON CRIB    1100            25  330/ 20/ 23   N/A
BURNHAM HARBOR   1100            26  320/ 12/ 18   N/A
CALUMET HARBOR   1100            25  310/  9/ 14   N/A
BURNS HARBOR     NOT AVBL
MICHIGAN CITY    1100            27  330/ 25/ 29   N/A
$$

ABBREVIATIONS USED IN REMARKS
   TC - TEMPERATURE IN CELSIUS
  WCI - WIND CHILL INDEX
   HX - HEAT INDEX
  VSB - VISIBILITY
$$



USA.gov is the U.S. government's official web portal to all federal, state and local government web resources and services.